Regional Weather Roundup
Issued by NWS Cleveland, OH

Home | Current Version | Previous Version | Graphics & Text | Print | Product List | Glossary On
Versions: 1 2 3 4 5 6 7 8 9 10 11 12 13 14 15 16 17 18 19 20 21 22 23 24 25 26 27 28 29 30 31 32 33 34 35 36 37 38 39 40 41 42 43 44 45 46 47 48 49 50
000
ASUS41 KCLE 301910
RWRCLE
OHIO REGIONAL WEATHER ROUNDUP
NATIONAL WEATHER SERVICE WILMINGTON, OH
300 PM EDT THU MAR 30 2017

NOTE: "FAIR" INDICATES FEW OR NO CLOUDS BELOW 12,000 FEET WITH NO
SIGNIFICANT WEATHER AND/OR OBSTRUCTIONS TO VISIBILITY.

OHZ001>008-015>018-024>027-034-035-043-044-302000-
   NORTHWEST OHIO

CITY           SKY/WX    TMP DP  RH WIND       PRES   REMARKS
DEFIANCE       TSTM      42  40  92 E17       29.73F FOG
FINDLAY        TSTM      48  42  80 E14       29.75F
TOLEDO EXPRESS LGT RAIN  41  38  89 E18G26    29.76F
TOLEDO EXEC    CLOUDY    42  39  89 E18G28    29.79F
LIMA           TSTM      51  48  89 E10       29.70F
$$

OHZ009>014-019>023-028>033-038-089-302000-
   NORTHEAST OHIO

CITY           SKY/WX    TMP DP  RH WIND       PRES   REMARKS
CLE-HOPKINS    CLOUDY    49  40  71 E17G24    29.84F
CLE-LAKEFRONT  LGT RAIN  47  39  74 E16G24    29.82F
CUY CO. ARPT   PTSUNNY   46  41  81 SE23G31   29.84F
LORAIN-ELYRIA  CLOUDY    47  40  76 SE13      29.80F
ASHTABULA      LGT RAIN  39  37  92 E17       29.91F FOG
AKRON-CANTON   CLOUDY    51  39  63 E17       29.83F
WOOSTER        PTSUNNY   52  41  66 E15       29.81F
MANSFIELD      PTSUNNY   56  44  64 E16       29.76F
YOUNGSTOWN     CLOUDY    44  36  73 NE7       29.93R
$$

OHZ042-051>053-060>062-070>072-077>081-302000-
  SOUTHWEST OHIO

CITY           SKY/WX    TMP DP  RH WIND       PRES   REMARKS
CINC-COVINGTON PTSUNNY   78  51  38 S15G25    29.65F
CINC-LUNKEN    FAIR      77  55  46 S14G26    29.65F
HAMILTON       FAIR      80  51  36 S10G24    29.63F
DAYTON         PTSUNNY   74  54  49 W7G18     29.66F
WRIGHT-PAT AFB PTSUNNY   77  52  41 S17G24    29.65F
DAYTON GENERAL FAIR      77  52  41 S18G26    29.65F
WILMINGTON     FAIR      74  55  51 S16G25    29.67F
$$

OHZ036-037-039>041-045>050-054>059-063>069-073>076-082>088-302000-
  CENTRAL AND SOUTHEAST OHIO

CITY           SKY/WX    TMP DP  RH WIND       PRES   REMARKS
COLUMBUS       PTSUNNY   72  54  53 SE8       29.71F
OSU AIRPORT    FAIR      70  54  56 SE12      29.71F
BOLTON FIELD   SUNNY     70  55  60 S10G17    29.71F
RICKENBACK AFB FAIR      71  55  55 S13       29.71F
NEWARK         FAIR      70  52  52 S7        29.74F
MARION         FAIR      64  50  60 SE13      29.72F
LANCASTER      FAIR      75  54  47 S13       29.73F
ZANESVILLE     PTSUNNY   68  52  56 SE6       29.76F
NEW PHILLY     FAIR      57  47  69 E9        29.82F
$$




USA.gov is the U.S. government's official web portal to all federal, state and local government web resources and services.